Wind_Speed
8 7 6 6 5 3 1 1 2 3 4 5 7 8 8 8 8 9 10 10 9 9 9 8 9 9 9 10 10 10 10 11 11 11 11 11 11 11 11 11 12 12 12 12 13 12 12 12 13
9 8 7 7 6 5 4 4 4 5 5 6 8 9 10 9 9 9 10 10 10 10 10 10 10 10 10 10 10 10 10 10 11 11 11 12 11 12 12 12 13 13 13 13 13 13 13 12 13
10 9 9 8 8 6 5 5 6 7 7 8 10 11 11 10 10 10 10 9 10 10 10 11 10 10 10 10 11 10 10 11 11 11 12 12 12 12 13 13 13 14 14 14 14 14 13 13 13
10 10 10 10 8 7 7 7 7 8 8 10 11 12 11 11 11 11 10 10 10 10 10 10 10 11 12 11 11 11 10 10 11 11 12 12 12 13 13 14 14 14 14 15 15 14 14 14 15
10 10 11 11 10 9 8 9 9 8 10 11 11 11 11 12 12 12 12 11 10 10 10 11 10 11 13 13 11 12 11 11 11 11 11 12 12 13 14 15 15 15 15 16 16 16 16 16 16
11 11 12 11 10 9 9 9 9 10 12 13 13 12 12 13 12 12 12 12 11 11 11 12 12 12 13 13 12 13 12 11 12 12 12 12 13 14 15 15 15 15 16 16 16 16 16 16 16
12 12 11 9 10 10 9 8 10 13 14 14 13 13 12 12 12 13 13 13 12 12 12 12 12 12 12 12 13 12 12 11 11 11 12 13 13 14 15 15 15 16 17 17 17 17 17 17 17
12 12 10 8 9 10 10 10 11 13 13 12 12 13 12 13 12 12 12 12 11 10 10 11 11 12 12 13 12 12 12 12 11 12 13 14 14 15 15 16 16 16 17 17 17 18 18 17 17
12 10 9 8 7 8 10 10 11 12 12 10 11 11 12 12 13 13 12 11 10 10 10 11 11 12 13 14 14 13 13 12 12 13 14 14 15 15 16 16 16 17 17 17 17 18 18 18 18
12 10 8 8 7 7 9 11 12 12 11 10 10 11 12 12 12 13 13 12 12 12 12 12 12 12 13 14 14 13 13 13 13 14 15 16 16 16 17 17 17 18 17 17 17 18 18 19 18
13 10 8 6 6 8 10 11 12 12 12 11 11 11 11 11 12 12 13 13 13 13 12 13 13 13 14 14 13 13 14 14 15 15 16 17 17 17 17 18 18 18 17 17 17 18 18 18 18
12 10 8 7 9 10 10 11 12 12 12 11 10 12 12 12 12 13 13 14 14 13 13 13 14 14 14 15 15 15 15 15 16 16 16 17 17 17 17 17 17 17 17 17 17 17 17 18 19
11 10 9 8 10 11 11 11 11 12 12 11 11 12 14 13 14 14 15 15 15 14 14 14 16 16 16 16 16 16 16 16 16 17 17 17 17 17 18 17 16 17 17 18 18 18 17 18 18
10 10 9 9 10 10 11 11 11 12 11 11 11 11 12 13 14 14 15 16 15 15 15 15 16 17 17 17 16 16 17 17 17 17 17 17 17 18 17 18 17 17 18 18 18 18 18 18 18
10 9 8 8 10 11 12 13 11 11 11 11 12 12 11 12 14 14 15 15 14 15 15 16 17 17 17 17 18 18 18 18 18 17 17 18 18 19 18 17 17 17 18 18 18 18 18 18 18
10 9 8 8 9 11 13 13 13 12 13 13 13 13 12 12 14 15 14 14 14 15 16 17 18 18 18 18 19 19 19 19 19 18 18 18 18 19 19 18 18 17 18 18 18 18 18 18 19
10 10 9 9 10 12 14 14 14 15 14 14 14 14 13 14 14 15 15 15 15 15 16 18 19 19 19 19 19 19 18 18 19 19 19 19 18 18 18 18 17 17 17 17 18 18 18 18 19
11 11 11 10 12 13 14 14 15 16 15 15 16 15 15 16 16 16 16 15 15 16 17 18 18 18 19 19 19 18 18 18 18 18 19 19 19 18 18 18 17 17 17 17 17 17 18 18 19
11 12 11 11 12 14 15 15 15 16 16 16 16 15 16 16 16 17 17 16 16 17 19 19 19 19 19 20 19 18 18 18 19 19 19 19 19 17 17 18 18 17 17 17 17 17 17 17 17
11 11 11 11 13 15 16 17 17 17 17 17 16 16 17 17 17 17 16 16 17 17 19 20 19 20 20 20 19 19 18 18 18 18 19 18 18 18 17 16 16 16 17 17 17 17 17 17 17
9 11 12 13 14 15 16 17 18 18 18 17 16 16 18 18 18 17 18 18 18 19 20 20 19 19 20 19 19 18 18 18 18 18 18 17 18 17 16 15 15 15 15 16 16 17 17 17 17
10 10 13 15 16 17 17 18 17 17 17 17 17 18 19 18 18 18 18 18 20 20 21 21 20 20 20 19 19 18 18 17 17 16 16 16 15 15 15 15 14 14 15 15 16 16 16 16 17
10 11 12 14 16 17 18 18 17 16 16 16 17 18 18 18 18 19 19 20 20 21 20 20 20 20 19 18 18 18 17 17 17 16 15 14 14 15 15 14 14 14 14 15 16 16 17 17 18
11 12 13 14 15 15 15 16 17 16 16 16 16 17 18 18 19 19 20 20 20 20 19 19 20 19 18 18 17 17 16 16 16 16 14 14 14 14 14 14 14 15 15 15 16 16 17 18 18
12 12 13 14 15 15 15 16 15 15 15 16 15 16 18 19 19 18 20 20 19 19 19 19 20 19 17 17 16 16 15 16 16 15 14 14 13 13 14 14 15 16 16 16 16 16 17 17 17
13 13 14 15 15 16 17 17 16 15 15 13 13 15 17 18 17 16 18 20 20 19 18 19 19 17 17 16 15 15 15 14 14 14 14 13 13 13 14 14 15 16 15 15 14 15 16 16 16
13 14 14 16 16 17 18 17 16 15 15 14 14 15 16 16 15 15 17 18 18 19 19 18 16 15 15 14 13 13 14 13 13 13 13 13 13 13 13 14 15 15 15 15 15 15 16 16 16
13 14 15 15 17 18 18 16 15 15 15 14 14 14 16 16 16 16 17 17 18 18 18 17 16 14 13 13 13 13 13 13 13 14 14 14 13 13 13 13 14 14 14 14 15 15 15 15 15
13 14 15 16 17 17 18 17 16 16 15 14 15 16 16 16 17 17 16 16 17 17 17 16 14 13 12 12 12 12 13 13 13 13 13 13 13 13 13 13 14 14 14 14 14 15 14 15 15
14 14 15 17 17 17 18 18 16 16 16 16 16 16 16 16 16 17 17 17 17 16 16 15 13 12 12 12 12 13 13 14 14 14 13 13 13 13 14 14 15 15 15 14 13 13 13 15 16
Wind_Direction
198 196 200 198 194 190 219 274 299 286 304 308 299 298 307 317 318 320 317 314 317 312 307 310 309 304 304 298 292 287 284 282 280 280 280 281 279 278 278 279 277 274 271 268 265 261 256 253 250
203 203 203 202 202 199 229 259 282 290 296 301 297 297 299 307 315 317 317 313 313 314 306 303 306 304 305 301 293 287 286 285 280 278 278 279 279 278 278 278 277 273 270 268 266 264 259 255 252
208 209 211 205 212 212 227 258 286 298 301 306 301 301 301 306 313 317 315 315 312 312 307 302 302 299 302 298 291 288 285 283 282 282 281 279 278 278 276 276 275 273 270 268 267 266 263 259 257
211 210 210 205 208 213 230 252 271 294 300 298 296 297 302 306 308 313 313 314 313 311 307 304 301 298 297 295 290 287 284 283 284 287 285 284 280 278 277 276 274 273 271 269 266 265 264 261 259
216 217 215 208 210 219 235 252 270 283 292 294 299 301 305 306 308 311 313 311 308 309 308 303 300 299 297 294 290 287 282 282 284 287 287 286 283 280 278 277 273 271 270 270 267 265 264 263 260
217 220 220 218 220 229 244 259 276 282 288 293 298 305 306 307 306 306 307 305 302 303 306 299 298 298 298 297 292 291 283 283 285 285 286 286 284 282 280 277 274 271 271 269 267 265 264 264 260
219 222 223 227 233 243 253 269 285 285 291 296 295 299 307 311 310 308 303 302 303 301 301 299 298 298 298 300 298 298 290 286 287 285 284 285 285 282 279 277 274 273 272 270 268 266 263 261 259
219 226 228 234 242 252 265 273 280 284 293 296 298 304 310 310 309 312 312 308 308 305 299 297 298 297 295 296 295 295 289 285 284 285 286 284 284 283 280 276 275 274 274 271 269 267 263 259 257
213 220 225 233 245 255 265 272 280 288 288 299 304 306 306 312 310 311 311 314 312 308 303 301 299 295 294 293 292 294 292 289 284 283 286 285 286 284 282 279 274 273 272 273 271 267 262 258 254
211 213 222 235 248 253 263 276 283 287 287 297 301 302 306 310 311 309 311 312 313 308 305 304 302 296 294 294 293 294 295 294 287 284 285 286 286 285 284 279 275 271 270 272 272 267 262 258 256
213 211 218 236 259 269 271 276 276 277 285 294 297 299 308 313 315 314 314 312 312 311 308 307 303 299 297 298 295 292 293 294 291 287 285 286 286 284 282 278 275 272 269 271 270 265 263 260 258
213 207 218 237 257 267 277 280 282 280 286 292 296 301 307 309 310 312 313 312 312 310 309 308 305 303 299 298 293 291 291 290 290 287 286 288 289 286 282 278 275 273 271 269 268 265 262 262 261
212 209 218 236 254 265 276 285 290 291 294 299 302 302 303 304 305 306 308 310 311 308 306 305 305 305 302 298 294 292 291 289 290 290 288 290 290 286 281 278 274 272 272 270 268 265 263 264 261
211 213 222 239 250 269 285 288 292 298 297 304 307 302 301 302 300 304 308 307 307 307 304 306 306 303 302 298 295 297 296 292 289 289 290 290 293 290 283 280 275 271 271 269 265 263 260 261 259
221 222 230 244 257 272 286 290 298 301 310 314 315 310 307 307 305 304 303 303 306 309 308 305 306 304 300 297 296 298 294 291 286 288 289 290 290 290 286 282 278 273 271 270 268 266 261 260 258
227 231 236 248 262 271 284 291 297 300 306 310 312 308 308 310 309 308 306 308 310 311 309 307 307 305 302 298 297 297 296 292 291 291 288 289 289 288 288 287 284 279 275 272 269 266 262 260 258
228 234 245 256 265 274 284 297 298 299 301 305 307 307 304 311 310 311 310 312 314 313 309 308 306 304 303 301 300 295 294 293 291 290 287 287 286 285 285 284 283 279 275 271 267 263 261 261 259
232 243 254 265 272 276 282 292 294 298 302 304 304 308 305 310 310 311 306 308 310 310 310 308 305 303 304 303 300 296 292 292 290 291 290 285 283 283 283 281 280 276 274 270 266 264 262 260 259
241 252 257 263 267 275 282 289 288 294 297 299 304 306 305 310 311 308 303 305 307 308 310 308 303 303 303 304 302 298 295 292 291 289 289 285 282 283 284 281 280 275 272 270 266 264 262 260 260
245 250 254 260 270 276 280 283 286 294 299 299 300 303 308 308 307 308 306 309 308 308 309 308 305 303 303 302 301 299 297 294 293 292 291 286 282 281 282 280 278 274 271 269 267 267 264 261 262
242 252 259 266 271 274 281 287 287 294 298 299 299 301 305 306 310 311 307 307 308 308 309 310 308 305 302 300 299 298 296 292 292 291 289 285 284 284 281 280 279 273 271 269 267 266 267 265 265
241 254 264 269 271 271 281 287 287 291 294 295 298 298 304 308 312 313 308 307 308 308 308 309 309 307 302 296 295 295 296 293 291 289 288 288 286 284 283 281 282 276 272 271 267 264 266 268 268
248 259 271 269 266 267 274 280 281 286 291 292 297 301 302 307 308 312 312 310 309 307 309 310 307 305 300 296 294 293 294 292 290 287 286 287 287 286 284 283 281 277 276 273 269 268 268 268 270
251 260 270 269 265 265 270 276 282 287 293 296 296 299 300 305 307 309 311 310 309 308 309 309 308 303 298 297 295 292 291 291 290 288 286 287 288 287 284 284 282 280 279 277 274 272 270 269 271
252 262 268 268 265 266 272 275 283 290 296 300 297 295 297 301 306 308 310 310 311 308 309 307 307 304 300 298 294 294 293 292 293 290 287 289 291 289 288 288 288 288 286 282 280 275 272 270 270
259 267 269 274 274 274 277 280 284 289 297 303 300 300 302 303 305 307 310 311 314 316 315 312 308 304 302 302 297 296 300 299 296 293 291 291 293 291 288 289 292 292 290 287 285 280 275 272 273
262 265 270 274 275 279 279 283 284 284 290 296 303 307 307 304 305 311 314 314 315 316 316 315 311 308 304 301 302 303 303 304 302 298 297 293 291 292 290 290 293 294 291 286 285 284 279 276 275
261 266 271 276 277 279 280 282 288 290 289 294 301 309 312 313 312 314 317 315 316 318 317 314 314 308 302 303 304 305 304 300 300 302 300 295 294 295 293 292 295 295 292 291 290 287 281 277 277
260 264 269 274 278 281 283 287 294 292 290 298 306 311 311 316 317 318 318 317 318 317 317 317 313 307 302 304 306 303 303 303 301 303 300 299 297 295 295 298 300 298 296 295 294 289 282 280 279
262 264 266 271 277 281 285 291 295 292 296 302 305 307 313 319 318 318 318 317 316 317 315 315 310 306 304 304 307 305 305 305 301 301 301 300 297 295 294 297 298 298 298 297 295 291 288 285 282
Height
5893 5893 5894 5895 5896 5896 5896 5896 5896 5896 5896 5896 5895 5894 5894 5894 5894 5895 5893 5890 5889 5888 5888 5887 5887 5886 5885 5885 5884 5884 5883 5883 5882 5881 5881 5880 5880 5879 5879 5878 5878 5877 5877 5876 5876 5876 5876 5876 5876
5891 5892 5893 5894 5894 5894 5894 5894 5895 5895 5895 5895 5894 5893 5893 5893 5892 5892 5890 5888 5888 5887 5887 5886 5885 5885 5884 5883 5883 5882 5881 5880 5880 5879 5879 5878 5877 5877 5876 5876 5875 5874 5874 5874 5874 5873 5873 5873 5873
5890 5891 5892 5892 5892 5892 5893 5893 5893 5892 5893 5893 5893 5892 5892 5891 5891 5890 5889 5887 5887 5886 5885 5885 5883 5883 5882 5881 5880 5880 5879 5878 5878 5877 5876 5876 5875 5874 5874 5873 5873 5872 5871 5871 5871 5871 5871 5871 5871
5888 5890 5890 5891 5890 5890 5891 5892 5892 5892 5892 5892 5891 5890 5889 5890 5889 5889 5887 5886 5885 5884 5883 5882 5882 5881 5880 5879 5878 5877 5876 5876 5875 5874 5874 5873 5872 5872 5871 5870 5870 5869 5868 5868 5868 5868 5868 5868 5868
5886 5887 5888 5888 5888 5888 5889 5890 5890 5891 5891 5890 5889 5888 5887 5888 5887 5886 5886 5885 5883 5883 5881 5881 5880 5879 5878 5876 5875 5874 5873 5873 5872 5871 5871 5870 5870 5869 5868 5867 5866 5866 5865 5865 5865 5865 5865 5865 5865
5885 5886 5886 5886 5887 5887 5888 5889 5889 5889 5889 5888 5888 5887 5886 5886 5884 5884 5883 5882 5881 5880 5879 5878 5877 5876 5875 5874 5873 5872 5871 5870 5869 5869 5868 5867 5866 5865 5865 5864 5863 5862 5862 5862 5861 5861 5861 5861 5861
5884 5884 5884 5885 5886 5886 5887 5887 5887 5888 5887 5887 5886 5886 5885 5884 5883 5882 5880 5879 5878 5877 5877 5875 5874 5873 5872 5871 5870 5869 5868 5867 5866 5866 5865 5864 5863 5862 5861 5860 5860 5859 5858 5858 5858 5857 5857 5857 5858
5881 5883 5883 5884 5884 5885 5885 5885 5885 5885 5885 5885 5884 5883 5883 5882 5881 5880 5878 5877 5876 5875 5874 5873 5872 5871 5870 5868 5867 5866 5865 5864 5863 5862 5861 5860 5859 5858 5857 5856 5855 5855 5855 5854 5854 5853 5853 5853 5853
5879 5881 5881 5882 5883 5883 5884 5883 5883 5883 5883 5882 5882 5882 5881 5880 5879 5878 5877 5875 5874 5873 5872 5871 5869 5868 5867 5866 5864 5863 5862 5861 5860 5859 5858 5857 5855 5854 5853 5852 5851 5851 5850 5850 5850 5849 5849 5849 5849
5877 5878 5879 5880 5881 5881 5882 5881 5881 5881 5881 5881 5880 5879 5878 5878 5876 5875 5874 5873 5872 5871 5869 5868 5867 5865 5864 5863 5861 5860 5859 5857 5856 5855 5854 5852 5851 5850 5848 5848 5847 5847 5846 5846 5845 5845 5845 5845 5845
5875 5877 5878 5878 5878 5879 5879 5880 5879 5879 5878 5878 5878 5877 5876 5875 5873 5872 5871 5870 5869 5868 5866 5865 5864 5862 5861 5860 5858 5856 5855 5854 5852 5851 5850 5848 5847 5845 5844 5843 5842 5842 5842 5841 5841 5840 5840 5841 5841
5874 5875 5875 5876 5876 5877 5878 5878 5877 5876 5876 5876 5875 5874 5874 5873 5871 5870 5869 5868 5866 5865 5863 5862 5860 5859 5857 5856 5854 5853 5851 5850 5848 5846 5845 5843 5842 5840 5839 5839 5838 5837 5837 5837 5836 5836 5836 5837 5837
5872 5873 5873 5874 5874 5875 5875 5875 5875 5874 5874 5873 5872 5872 5871 5870 5869 5868 5866 5865 5863 5861 5860 5858 5857 5855 5854 5852 5851 5849 5847 5845 5844 5842 5840 5839 5838 5836 5835 5834 5833 5833 5832 5832 5832 5832 5832 5832 5832
5870 5871 5871 5871 5872 5873 5873 5873 5873 5872 5871 5871 5870 5869 5868 5868 5866 5865 5863 5861 5860 5858 5856 5855 5853 5852 5850 5848 5847 5845 5843 5841 5840 5838 5836 5834 5833 5832 5830 5829 5829 5828 5827 5827 5827 5827 5827 5828 5828
5867 5868 5869 5869 5870 5870 5871 5871 5870 5870 5869 5868 5868 5867 5866 5865 5863 5862 5861 5858 5857 5855 5854 5852 5850 5848 5846 5844 5843 5841 5839 5837 5835 5833 5831 5829 5828 5827 5826 5824 5823 5823 5822 5822 5822 5822 5822 5823 5823
5865 5866 5866 5868 5868 5868 5869 5868 5868 5867 5867 5866 5865 5864 5863 5862 5860 5859 5857 5855 5854 5851 5850 5848 5846 5844 5842 5840 5838 5836 5834 5832 5830 5828 5826 5825 5823 5822 5820 5819 5818 5817 5817 5816 5817 5817 5817 5818 5818
5863 5864 5864 5865 5865 5865 5865 5865 5865 5864 5864 5863 5862 5861 5860 5858 5856 5855 5853 5851 5850 5848 5846 5844 5842 5840 5838 5836 5834 5832 5829 5827 5825 5823 5821 5820 5818 5816 5815 5813 5812 5811 5811 5811 5811 5812 5812 5813 5813
5861 5861 5861 5861 5862 5862 5862 5862 5862 5861 5861 5860 5859 5857 5856 5854 5853 5851 5849 5847 5846 5844 5842 5840 5838 5835 5833 5831 5829 5826 5824 5822 5820 5818 5817 5815 5813 5811 5810 5808 5807 5806 5806 5806 5806 5806 5807 5807 5808
5858 5858 5858 5859 5859 5859 5858 5859 5859 5858 5857 5857 5855 5854 5852 5850 5849 5847 5845 5842 5842 5840 5838 5835 5833 5830 5828 5826 5824 5822 5819 5817 5816 5813 5812 5810 5808 5806 5805 5803 5802 5801 5801 5801 5801 5801 5802 5802 5803
5855 5855 5855 5856 5856 5856 5855 5855 5854 5854 5853 5853 5852 5850 5848 5846 5845 5844 5841 5839 5838 5836 5833 5830 5828 5825 5823 5821 5819 5817 5815 5813 5811 5808 5807 5805 5803 5802 5800 5799 5797 5797 5796 5796 5796 5797 5797 5797 5798
5852 5852 5853 5853 5853 5853 5852 5852 5851 5850 5849 5848 5847 5846 5845 5843 5841 5839 5837 5835 5833 5830 5828 5825 5823 5820 5818 5816 5814 5812 5810 5808 5806 5804 5802 5801 5799 5797 5795 5794 5793 5793 5792 5792 5792 5792 5792 5792 5793
5850 5851 5851 5850 5850 5850 5850 5848 5848 5847 5846 5845 5843 5842 5841 5839 5836 5834 5832 5829 5828 5826 5823 5820 5818 5815 5812 5810 5809 5807 5805 5803 5801 5799 5798 5796 5794 5793 5791 5790 5789 5789 5788 5788 5788 5788 5788 5788 5788
5848 5848 5848 5847 5847 5846 5846 5844 5844 5843 5842 5841 5839 5838 5836 5834 5833 5830 5827 5825 5823 5821 5818 5815 5812 5810 5808 5806 5804 5802 5800 5798 5796 5795 5794 5792 5791 5789 5788 5787 5786 5785 5784 5783 5783 5783 5783 5783 5783
5845 5845 5845 5844 5844 5843 5843 5841 5840 5839 5838 5837 5835 5834 5832 5830 5828 5826 5823 5820 5818 5815 5813 5810 5807 5804 5803 5801 5799 5797 5795 5794 5792 5790 5789 5788 5787 5785 5784 5783 5782 5781 5780 5779 5779 5778 5778 5778 5778
5842 5843 5842 5841 5840 5840 5839 5838 5838 5835 5834 5832 5831 5829 5828 5826 5824 5822 5819 5816 5813 5811 5808 5806 5803 5800 5798 5796 5794 5793 5791 5789 5788 5786 5785 5784 5783 5782 5780 5779 5778 5777 5776 5775 5774 5773 5773 5772 5772
5839 5839 5839 5838 5837 5836 5835 5834 5834 5832 5830 5829 5827 5826 5824 5822 5820 5818 5815 5812 5809 5807 5804 5801 5798 5796 5794 5792 5790 5789 5788 5786 5784 5783 5781 5780 5779 5778 5777 5776 5774 5773 5771 5770 5769 5769 5768 5767 5767
5835 5835 5835 5834 5833 5832 5830 5830 5829 5828 5827 5826 5824 5822 5820 5818 5816 5814 5811 5808 5806 5804 5801 5798 5795 5793 5791 5789 5787 5786 5784 5783 5781 5779 5778 5777 5775 5774 5773 5771 5770 5769 5767 5766 5765 5763 5763 5762 5762
5832 5832 5831 5830 5829 5827 5826 5826 5826 5824 5823 5822 5820 5818 5817 5815 5812 5810 5807 5804 5802 5800 5797 5794 5792 5789 5787 5786 5784 5783 5781 5779 5777 5776 5774 5773 5772 5770 5769 5767 5766 5765 5763 5762 5760 5759 5758 5757 5757
5829 5828 5827 5826 5825 5824 5822 5824 5822 5820 5819 5818 5816 5815 5813 5811 5809 5807 5804 5801 5799 5796 5793 5791 5789 5787 5785 5783 5781 5779 5778 5776 5774 5772 5770 5769 5768 5766 5765 5763 5762 5761 5759 5757 5756 5754 5753 5752 5752
5825 5824 5823 5823 5821 5820 5818 5821 5817 5816 5815 5813 5812 5811 5810 5808 5806 5804 5801 5798 5796 5793 5790 5788 5786 5784 5782 5780 5778 5776 5774 5772 5770 5769 5767 5765 5764 5762 5761 5759 5758 5756 5755 5753 5751 5750 5749 5748 5747